Satellite: AEROCUB3
Catalog number: 35005
Epoch time:      10126.15548826
Element set:     302
Inclination:      040.4684 deg
RA of node:       099.2052 deg
Eccentricity:    0.0016504
Arg of perigee:   077.6131 deg
Mean anomaly:     282.6341 deg
Mean motion:   15.49079268 rev/day
Decay rate:     5.4107e-04 rev/day^2
Epoch rev:            5422
Checksum:              278

Satellite: DRAGNSAT
Catalog number: 35690
Epoch time:      10076.22711312
Element set:     316
Inclination:      051.6170 deg
RA of node:       315.4586 deg
Eccentricity:    0.0004999
Arg of perigee:   310.9891 deg
Mean anomaly:     057.3269 deg
Mean motion:   16.42150010 rev/day
Decay rate:   5.715194e-02 rev/day^2
Epoch rev:            3656
Checksum:              289

Satellite: POLLUX
Catalog number: 35693
Epoch time:      10087.99866888
Element set:     352
Inclination:      051.6099 deg
RA of node:       254.5746 deg
Eccentricity:    0.0006270
Arg of perigee:   294.4866 deg
Mean anomaly:     097.5899 deg
Mean motion:   16.52338462 rev/day
Decay rate:  2.3496735e-01 rev/day^2
Epoch rev:            3839
Checksum:              384

Satellite: CASTOR
Catalog number: 35694
Epoch time:      10126.65924850
Element set:     351
Inclination:      051.6365 deg
RA of node:       061.5427 deg
Eccentricity:    0.0004772
Arg of perigee:   064.5909 deg
Mean anomaly:     295.5591 deg
Mean motion:   15.96527898 rev/day
Decay rate:     7.7551e-04 rev/day^2
Epoch rev:            4441
Checksum:              330

Satellite: METEOR-M
Catalog number: 35865
Epoch time:      10126.68536990
Element set:     268
Inclination:      098.7608 deg
RA of node:       180.7736 deg
Eccentricity:    0.0003094
Arg of perigee:   109.9901 deg
Mean anomaly:     250.1581 deg
Mean motion:   14.21830012 rev/day
Decay rate:       1.76e-06 rev/day^2
Epoch rev:            3282
Checksum:              297

Satellite: RS-38
Catalog number: 35869
Epoch time:      10126.80203282
Element set:     275
Inclination:      098.7605 deg
RA of node:       180.9181 deg
Eccentricity:    0.0005369
Arg of perigee:   118.7914 deg
Mean anomaly:     241.3772 deg
Mean motion:   14.21980863 rev/day
Decay rate:       1.77e-06 rev/day^2
Epoch rev:            3284
Checksum:              318

/EX


_______________________________________________
Via the Keps mailing list courtesy of AMSAT-NA
http://amsat.org/mailman/listinfo/keps

--- ViaMAIL!/WC v1.60d
 * Origin: Chowdanet (401-724-4410) telnet://chowdanet.com  (1:323/120)